Location: Aiguetinte
(43.8348°N, 0.4284°E)
Time: 22:29:48
(UTC+00:00)

Daily predictions for brighter satellites

Satellite Brightness Start Highest point End
(mag) Time Altitude Azimuth Time Altitude Azimuth Time Altitude Azimuth
NOAA 6 4.4 16:44:04 10° SE 16:48:52 42° ENE 16:53:40 10° N
Sich 1 4.1 16:46:57 10° NNE 16:50:28 24° ENE 16:53:58 10° SE
Cosmos 2221 2.7 16:46:17 10° SSW 16:50:32 76° W 16:54:52 10° N
Cosmos 1980 Rocket 3.1 16:46:11 10° N 16:51:00 27° NE 16:55:45 10° ESE
Cosmos 1805 Rocket 4.2 16:48:38 10° N 16:52:32 32° ENE 16:56:25 10° SE
Cosmos 2369 4.3 16:47:48 10° N 16:53:03 35° NE 16:58:14 10° ESE
Cosmos 1842 Rocket 3.8 16:50:57 10° SSW 16:55:25 79° W 16:59:55 10° N
USA 234 3.4 16:49:27 10° ESE 16:55:50 58° NNE 17:02:13 10° NW
CZ-4C R/B 3.6 16:50:39 10° NNW 16:56:57 34° NE 17:04:12 10° E
Cosmos 1092 Rocket 4.2 16:52:29 10° N 16:58:40 50° ENE 17:04:45 10° SSE
Cosmos 2084 3.4 16:54:38 10° NW 16:58:58 76° NE 17:03:27 10° SE
NOSS 3-1 (A) 4.1 16:51:54 10° NW 16:59:29 78° NE 17:08:20 10° SE
Cosmos 1812 4.4 16:57:13 10° SE 16:59:34 16° E 17:01:55 10° NE
SL-16 R/B 3.9 16:59:37 10° NNE 17:01:44 12° NE 17:03:51 10° ENE
ISS -2.6 16:58:55 10° NW 17:01:57 29° NNE 17:04:58 10° E
Meteor 1-25 Rocket 4.2 16:58:49 10° N 17:04:19 60° ENE 17:09:52 10° SSE
SMAP 3.1 17:00:15 10° SSE 17:04:48 56° ENE 17:09:22 10° N
Cosmos 2082 Rocket 2.9 16:59:53 10° SSE 17:04:56 34° ESE 17:09:58 10° NE
Meteor PRIRODA 3.8 17:01:51 10° S 17:05:29 78° WSW 17:09:07 10° NNW
Cosmos 1939 Rocket 2.9 17:01:58 10° SSE 17:06:01 61° ENE 17:10:03 10° N
CORIOLIS 4.3 17:02:31 10° SSE 17:07:46 56° ENE 17:13:04 10° N
NOAA 12 4.3 17:05:39 10° SSE 17:10:59 83° WSW 17:16:20 10° NNW
CZ-4B DEB 4.3 17:08:48 10° SE 17:14:09 55° ENE 17:19:31 10° N
Cosmos 2278 4.4 17:12:00 10° N 17:17:04 31° NE 17:22:04 10° ESE
Cosmos 1602 3.7 17:14:00 10° N 17:17:49 58° E 17:21:38 10° SSE
AQUARIUS 4.1 17:14:16 10° SSE 17:18:42 65° ENE 17:23:10 10° N
Cosmos 540 Rocket 3.4 17:14:50 10° S 17:19:53 68° ESE 17:24:58 10° NNE
Cosmos 1627 Rocket 4.5 17:14:02 10° N 17:20:10 61° E 17:26:11 10° SSE
Cosmos 2034 Rocket 4.3 17:15:07 10° SSW 17:21:14 69° W 17:27:24 10° N
Radarsat 4.5 17:17:59 10° SSE 17:23:10 74° ENE 17:28:22 10° N
ARGOS 3.9 17:19:49 10° SE 17:24:27 30° ENE 17:29:06 10° N
Cosmos 2279 Rocket 4.4 17:19:22 10° SSE 17:25:01 38° E 17:30:42 10° NNE
COSMOS 2406 3.2 17:19:45 10° SSW 17:25:30 82° ESE 17:31:16 10° NNE
Cosmos 1833 Rocket 2.9 17:21:13 10° SSW 17:26:50 76° WNW 17:32:29 10° NNE
COSMO-SKYMED 1 3.5 17:23:24 10° NE 17:27:08 28° E 17:30:52 10° SSE
Cosmos 1782 2.8 17:24:30 10° S 17:28:26 60° E 17:32:21 10° NNE
Meteor 2-21 4.4 17:25:06 10° N 17:31:10 66° E 17:37:09 10° SSE
ATLAS 5 CENTAUR R/B 3.5 17:24:48 10° NW 17:31:17 24° N 17:33:09 17° NE
Cosmos 1633 Rocket 3.7 17:31:46 10° N 17:35:44 32° ENE 17:39:40 10° SE
CZ-2D R/B 3.1 17:35:42 10° SSE 17:39:30 67° ENE 17:43:18 10° N
Cosmos 1898 Rocket 4.0 17:34:39 10° NNW 17:39:51 63° WSW 17:44:58 10° S
Cosmos 1634 Rocket 4.0 17:35:33 10° S 17:41:52 82° E 17:48:14 10° N
COSMOS 2455 2.8 17:36:45 10° SSW 17:42:44 81° ESE 17:48:13 13° NNE
PAYLOAD B 4.2 17:38:21 10° SSE 17:43:56 76° ENE 17:49:33 10° NNW
CZ-4B R/B 3.2 17:41:14 10° SSE 17:46:30 56° ENE 17:51:44 10° N
CZ-2C R/B 2.8 17:41:38 10° NNE 17:46:40 48° E 17:51:39 10° S
Cosmos 1500 3.0 17:43:35 10° N 17:47:20 85° E 17:51:03 10° S
Cosmos 1151 Rocket 3.1 17:43:15 10° S 17:47:26 52° E 17:51:27 11° NNE
Cosmos 2026 Rocket 4.0 17:42:48 10° N 17:48:58 84° W 17:55:02 10° S
Lacrosse 5 rocket 2.5 17:47:01 10° NNW 17:50:13 23° NNE 17:50:36 23° NE
Okean O Rocket 1.9 17:46:23 10° SE 17:50:36 44° ENE 17:54:50 10° N
Meteor 2-14 Rocket 4.5 17:48:09 10° N 17:54:16 83° W 18:00:20 10° S
Cosmos 2208 Rocket 4.3 17:53:28 10° S 17:58:37 48° ESE 18:01:39 24° NE
Cosmos 1666 Rocket 3.4 17:57:12 10° N 18:01:39 75° E 18:06:03 10° SSE
NOSS 2-2 (C) 4.4 17:57:06 10° NW 18:02:29 89° NE 18:10:06 10° SE
H-2A R/B 2.1 17:57:27 10° SSE 18:02:39 82° WSW 18:07:43 10° NNW
Meteor 1-11 Rocket 4.3 17:58:38 10° N 18:03:39 32° ENE 18:05:46 25° ESE
Cosmos 1470 Rocket 4.0 18:00:39 10° N 18:04:51 39° ENE 18:09:02 10° SE
Cosmos 1328 Rocket 3.6 18:00:36 10° S 18:04:57 58° E 18:07:30 24° NNE
USA 267 3.9 18:01:03 18° NE 18:05:43 46° NNW 18:11:53 10° W
Cosmos 1655 Rocket 4.2 18:00:53 10° N 18:07:01 46° ENE 18:13:04 10° SSE
USA 305 4.3 18:05:07 10° NW 18:08:31 23° N 18:08:46 23° NNE
Cosmos 2360 Rocket 4.0 18:05:16 10° N 18:07:10 15° NNE 18:07:10 15° NNE
Landsat 5 3.4 18:08:42 41° NE 18:09:44 55° E 18:13:38 10° S
Cosmos 2180 Rocket 4.4 18:07:21 10° S 18:13:40 71° E 18:19:55 10° NNE
Cosmos 841 Rocket 4.1 18:09:02 10° SW 18:14:05 53° WNW 18:18:54 11° NNE
SKYMED 2 3.5 18:12:00 17° NNE 18:15:21 88° WNW 18:19:42 10° SSW
Feng Yun 1-1 Rocket 4.4 18:10:12 10° SE 18:15:57 55° ENE 18:21:40 10° N
Cosmos 1666 2.6 18:13:04 10° N 18:16:48 78° W 18:20:30 10° S
Meteor 2-8 Rocket 4.3 18:11:07 10° S 18:17:14 73° E 18:23:24 10° NNE
ATLAS CENTAUR R/B 3.5 18:10:12 10° WSW 18:18:32 41° NW 18:20:44 25° NNE
Cosmos 1125 Rocket 4.0 18:17:57 10° N 18:22:14 39° NE 18:22:14 39° NE
SL-24 R/B - RUBIN 2 4.2 18:22:11 10° NW 18:26:33 54° WSW 18:30:44 10° SSE
Cosmos 2322 Rocket 3.2 18:24:07 10° N 18:27:49 29° NNE 18:27:49 29° NNE
SL-08 RB Rocket 3.6 18:29:10 10° SSE 18:33:48 85° ENE 18:38:26 10° NNW
Cosmos 1812 4.2 18:31:24 10° SW 18:34:58 36° WNW 18:37:47 15° NNW
Cosmos 1980 Rocket 3.0 18:29:48 10° NW 18:35:16 51° WSW 18:40:40 10° S
USA 234 4.1 18:32:38 10° SSE 18:38:55 49° SW 18:45:14 10° WNW
ISS -2.5 18:35:37 10° WNW 18:37:59 41° WNW 18:37:59 41° WNW
CZ-4C R/B 3.1 18:38:49 10° NW 18:46:13 78° WSW 18:54:45 10° SSE
SL-16 R/B 2.4 18:41:31 10° NNW 18:46:11 51° NNE 18:46:11 51° NNE
Cosmos 1515 Rocket 4.1 18:42:43 10° S 18:46:04 51° S 18:46:04 51° S
Cosmos 2082 Rocket 3.4 18:43:38 10° SW 18:48:55 38° WNW 18:52:35 18° N
Cosmos 44 Rocket 3.5 18:49:07 10° NW 18:53:09 60° NNW 18:53:09 60° NNW
Cosmos 2333 Rocket 4.4 18:53:54 10° N 18:54:26 12° N 18:54:26 12° N
COSMO-SKYMED 1 4.4 19:00:37 16° NNW 19:03:14 28° WNW 19:06:56 10° SW
ARGOS 4.4 18:59:31 10° SSW 19:04:34 39° W 19:09:38 10° NNW
Meteor 1-27 Rocket 4.3 19:02:53 10° S 19:06:41 46° S 19:06:41 46° S
DMSP B5D2-2 4.4 19:10:16 61° SW 19:10:16 61° SW 19:14:36 10° SSW
Cosmos 2298 Rocket 4.3 19:04:31 10° NNW 19:09:28 67° WNW 19:09:28 67° WNW
Cosmos 921 Rocket 4.4 19:06:46 10° SW 19:09:34 35° WSW 19:09:34 35° WSW
CZ-2C R/B 3.9 19:08:42 10° SW 19:09:35 14° SSW 19:09:35 14° SSW
Cosmos 2266 Rocket 4.5 19:09:47 10° NNW 19:16:03 60° W 19:22:20 10° S
GEOS 3 Rocket 4.2 19:19:06 51° NW 19:19:06 51° NW 19:22:59 10° NW
Cosmos 1818 4.1 19:14:38 10° NW 19:19:32 56° W 19:19:32 56° W
Okean O Rocket 4.2 19:23:58 10° SW 19:27:08 19° W 19:30:20 10° NW
Lacrosse 5 rocket 4.1 19:25:38 10° NW 19:26:13 14° NW 19:26:13 14° NW
BREEZE-M DEB (TANK) 4.2 19:22:00 10° SW 19:44:50 84° NW 19:44:57 83° NNW
Cosmos 2360 Rocket 4.5 19:48:01 10° NNW 19:48:57 15° NNW 19:48:57 15° NNW
Cosmos 2322 Rocket 4.5 20:08:06 10° NW 20:09:40 18° NW 20:09:40 18° NW
